User: anonymous   Login
Location: Unspecified
(42.1900°N, 71.3291°W)
Time: 12:02:58
(UTC-04:00)
Language:

Resurs 1-4 Rocket - Orbit

View from above orbital plane
View from above orbital plane
View from above satellite
View from above satellite

Ground track
Ground track

The orbit data is extracted from the following two-line orbital elements,

1 25400U 98043G   17179.51580777 -.00000010 +00000-0 +13929-4 0  9990
2 25400 098.4891 127.3751 0008659 262.0904 097.9293 14.25412799986465
Epoch (UTC): 28 June 2017 12:22:45
Eccentricity: 0.0008659
inclination: 98.4891°
perigee height: 801 km
apogee height: 813 km
right ascension of ascending node: 127.3751°
argument of perigee: 262.0904°
revolutions per day: 14.25412799
mean anomaly at epoch: 97.9293°
orbit number at epoch: 98646

The dashed part of the orbit path shows where the satellite is in the earth's shadow,  

DLR